Location: Tel Aviv
(32.0670°N, 34.7670°E)
Time: 10:52:36
(UTC+03:00)

Explorer 11/Cluster Stage 4 - Pass Details

Date: 18 September 2024
Orbit: 464 x 1208 km, 28.8° (Epoch: 06 October)

Event Time Altitude Azimuth Distance (km) Brightness Sun altitude
Rises 05:43:09 0° 240° (WSW) 3,140 - -10.0°
Exits shadow 05:45:10 - 235° (SW) 2,432 8.6 -9.6°
Reaches altitude 10° 05:45:28 10° 234° (SW) 2,331 8.5 -9.6°
Maximum altitude 05:50:50 46° 162° (SSE) 1,203 7.6 -8.4°
Drops below altitude 10° 05:57:22 10° 92° (E) 2,843 11.2 -7.1°
Sets 06:00:27 0° 86° (E) 3,900 12.9 -6.4°
